STARLINK-31701, 59582

Orbit data source: Space-Track

STARLINK-31701, 59582 is a payload satellite owned by SpaceX/Seattle (US) in LEO that was launched on Tue, 23 Apr 2024 UTC via an FALCON 9 launch vehicle from the Air Force Eastern Test Range (AFETR). Payload-class satellites include a variety of spacecraft equipped with specific instruments for various scientific and technological missions. These include communications satellites like Starlink; space stations such as the ISS; scientific satellites like the Hubble; Earth observation satellites from companies like Planet Labs, Umbra, and HawkEye 360; GPS; miniature CubeSats for education and research; and military/defense satellites.

Loading next visibility...
Identifier
59582, 2024-076U
Orbit
LEO
Country
Flag of USUS
Related business
Manufacturer
SpaceX/Seattle
Mission
Operational Commercial Communications
Bus & Motor
STARLINK V2M, Unknown motor
Mass
730 kg wet, ~700 kg dry
Launch date (UTC)
2024-04-23 (2 years ago)
Launch vehicle
FALCON 9
Launch site
Air Force Eastern Test Range (AFETR)
Object type
Payload
Rocket body
Debris
Shape & HBR
Box + 2 Pan, 17.7 m
Radar Cross Section
33.884 m², Large (>1 m²)

Expand to show TLE details & history
Last TLE update: 10 hours ago

TLE from 10 hours ago
0 STARLINK-31701
1 59582U 24076U   26035.74351531  .00051119  00000-0  18480-2 0  9993
2 59582  43.0006 195.0869 0001331 266.9901  93.0799 15.27691309101375
Epoch: 2026-02-04T17:50Z
TLE epoch observation values (Epoch: 2026-02-04T17:50:39.722Z)
Latitude
0.00001°
Longitude
152.51569°
Altitude
482.54 km
Speed
7.626 km/s
True Right ascension
13h 00m 20s
True Declination
0° 00' 00"
Sunlit
Object was in full shadow at epoch
Visualization orbit readout
Latitude
Unknown
Longitude
Unknown
Altitude
Unknown
Speed
Unknown
Apparent Right ascension
Unknown
Apparent Declination
Unknown
Sunlit
N/A
Visualization observer readout
Local Sidereal Time
05:32:11
Azimuth
Unknown
Elevation
Unknown
Doppler factor
Unknown
Orbital elements
Apogee altitude
485.574 km
Perigee altitude
483.748 km
Semi-major axis
6,862.798 km
Eccentricity
0.00013
Inclination
43.0006°
RAAN
195.0869°
Arg. of periapsis
266.9901°
True anomaly
93.09513°
Mean anomaly
93.0799°
Eccentric anomaly
93.08751°
Mean motion
3.81761 °/min
Orbital period
94.3 mins
BSTAR
0.001848
Loading maneuver chart data...
Computing Atmospheric mass density...
Loading historical data...
Loading historical data...
Loading historical data...
Loading historical data...
Loading historical data...
Loading historical data...
Loading historical data...

Documentation

Showing up to 5 results
|